| time (UTC) | temp C | wind direction | speed KPH | gust KPH | rain 1hr cm | rain 24hr cm | rain mn cm | humidity % | barometer mb |
| 20260502130520 | 2 | 260 | 8.0 | 9.7 | 0.00 | 0.00 | 0.00 | 86 | 1014.3 |
| 20260502123503 | 2 | 215 | 4.8 | 4.8 | 0.00 | 0.00 | 0.00 | 87 | 1013.8 |
| 20260502122959 | 2 | 248 | 8.0 | 9.7 | 0.00 | 0.00 | 0.00 | 88 | 1014.1 |
| 20260502122455 | 2 | 183 | 3.2 | 4.8 | 0.00 | 0.00 | 0.00 | 89 | 1014.1 |
| 20260502121954 | 2 | 220 | 6.4 | 8.0 | 0.00 | 0.00 | 0.00 | 88 | 1014.1 |
| 20260502121451 | 2 | 176 | 4.8 | 4.8 | 0.00 | 0.00 | 0.00 | 89 | 1014.1 |
| 20260502120948 | 2 | 224 | 6.4 | 8.0 | 0.00 | 0.00 | 0.00 | 90 | 1013.7 |
| 20260502120444 | 2 | 244 | 4.8 | 4.8 | 0.00 | 0.00 | 0.00 | 90 | 1013.9 |
| 20260502115439 | 2 | 245 | 4.8 | 4.8 | 0.00 | 0.00 | 0.00 | 91 | 1013.9 |
| 20260502114934 | 2 | 244 | 6.4 | 8.0 | 0.00 | 0.00 | 0.00 | 91 | 1013.7 |
| 20260502114432 | 2 | 249 | 4.8 | 8.0 | 0.00 | 0.00 | 0.00 | 91 | 1013.8 |
| 20260502113929 | 2 | 255 | 4.8 | 8.0 | 0.00 | 0.00 | 0.00 | 91 | 1013.9 |
| 20260502113426 | 2 | 250 | 8.0 | 9.7 | 0.00 | 0.00 | 0.00 | 92 | 1013.7 |
| 20260502112925 | 2 | 194 | 3.2 | 3.2 | 0.00 | 0.00 | 0.00 | 92 | 1013.9 |
| 20260502112422 | 2 | 246 | 8.0 | 9.7 | 0.00 | 0.00 | 0.00 | 93 | 1013.6 |
| 20260502111920 | 2 | 192 | 4.8 | 4.8 | 0.00 | 0.00 | 0.00 | 93 | 1013.6 |
| 20260502111416 | 2 | 233 | 3.2 | 3.2 | 0.00 | 0.00 | 0.00 | 93 | 1013.6 |
| 20260502110914 | 2 | 247 | 4.8 | 4.8 | 0.00 | 0.00 | 0.00 | 93 | 1013.7 |
| 20260502110412 | 2 | 185 | 3.2 | 3.2 | 0.00 | 0.00 | 0.00 | 93 | 1013.4 |
| 20260502105909 | 2 | 237 | 3.2 | 4.8 | 0.00 | 0.00 | 0.00 | 93 | 1013.2 |
| 20260502105406 | 2 | 198 | 4.8 | 4.8 | 0.00 | 0.00 | 0.00 | 93 | 1013.2 |
| 20260502104904 | 2 | 183 | 3.2 | 3.2 | 0.00 | 0.00 | 0.00 | 93 | 1013.2 |
| 20260502104401 | 2 | 213 | 4.8 | 4.8 | 0.00 | 0.00 | 0.00 | 93 | 1013.0 |
| 20260502103858 | 2 | 199 | 4.8 | 4.8 | 0.00 | 0.00 | 0.00 | 93 | 1013.1 |
| 20260502103355 | 2 | 219 | 4.8 | 4.8 | 0.00 | 0.00 | 0.00 | 94 | 1013.1 |
| 20260502102852 | 2 | 243 | 6.4 | 8.0 | 0.00 | 0.00 | 0.00 | 93 | 1013.1 |
| 20260502102349 | 2 | 192 | 1.6 | 1.6 | 0.00 | 0.00 | 0.00 | 93 | 1012.9 |
| 20260502101846 | 2 | 218 | 4.8 | 4.8 | 0.00 | 0.00 | 0.00 | 93 | 1013.2 |
| 20260502101344 | 2 | 243 | 4.8 | 4.8 | 0.00 | 0.00 | 0.00 | 94 | 1013.0 |
| 20260502100843 | 2 | 220 | 3.2 | 3.2 | 0.00 | 0.00 | 0.00 | 94 | 1012.8 |
| 20260502100342 | 2 | 217 | 3.2 | 3.2 | 0.00 | 0.00 | 0.00 | 94 | 1012.6 |
| 20260502091315 | 2 | 236 | 3.2 | 3.2 | 0.00 | 0.00 | 0.00 | 96 | 1012.6 |
| 20260502090813 | 3 | 212 | 3.2 | 3.2 | 0.00 | 0.00 | 0.00 | 96 | 1012.3 |
| 20260502090309 | 3 | 197 | 1.6 | 3.2 | 0.00 | 0.00 | 0.00 | 96 | 1012.3 |
| 20260502071205 | 3 | 183 | 1.6 | 1.6 | 0.00 | 0.00 | 0.00 | 96 | 1012.0 |
| 20260502070703 | 3 | 195 | 3.2 | 3.2 | 0.00 | 0.00 | 0.00 | 96 | 1011.8 |
| 20260502070200 | 3 | 185 | 1.6 | 3.2 | 0.00 | 0.00 | 0.00 | 96 | 1012.0 |
| 20260502065659 | 3 | 214 | 3.2 | 3.2 | 0.00 | 0.00 | 0.00 | 96 | 1012.1 |
| 20260502065155 | 2 | 187 | 1.6 | 3.2 | 0.00 | 0.00 | 0.00 | 96 | 1012.3 |
| 20260502064654 | 2 | 186 | 1.6 | 3.2 | 0.00 | 0.00 | 0.00 | 96 | 1012.2 |
| 20260502064151 | 2 | 180 | 1.6 | 1.6 | 0.00 | 0.00 | 0.00 | 96 | 1012.0 |
| 20260502063649 | 2 | 180 | 1.6 | 1.6 | 0.00 | 0.00 | 0.00 | 96 | 1012.1 |
| 20260502063147 | 2 | 164 | 0.0 | 0.0 | 0.00 | 0.00 | 0.00 | 96 | 1012.3 |
| 20260502062643 | 2 | 170 | 1.6 | 1.6 | 0.00 | 0.00 | 0.00 | 96 | 1012.0 |
| 20260502062141 | 2 | 162 | 1.6 | 1.6 | 0.00 | 0.00 | 0.00 | 96 | 1012.0 |
| 20260502061639 | 3 | 156 | 0.0 | 0.0 | 0.00 | 0.00 | 0.00 | 96 | 1011.8 |
| 20260502061136 | 3 | 155 | 0.0 | 0.0 | 0.00 | 0.00 | 0.00 | 96 | 1011.9 |
| 20260502060631 | 3 | 155 | 0.0 | 0.0 | 0.00 | 0.00 | 0.00 | 96 | 1011.9 |
| 20260502060128 | 3 | 155 | 0.0 | 0.0 | 0.00 | 0.00 | 0.00 | 96 | 1011.7 |
| 20260502055626 | 3 | 155 | 0.0 | 0.0 | 0.00 | 0.00 | 0.00 | 96 | 1011.9 |
| 20260502055123 | 3 | 156 | 0.0 | 0.0 | 0.00 | 0.00 | 0.00 | 96 | 1012.0 |
| 20260502054622 | 3 | 156 | 0.0 | 0.0 | 0.00 | 0.00 | 0.00 | 96 | 1012.1 |
| 20260502054119 | 3 | 157 | 0.0 | 0.0 | 0.00 | 0.00 | 0.00 | 96 | 1012.2 |
| 20260502053616 | 3 | 156 | 0.0 | 0.0 | 0.00 | 0.00 | 0.00 | 96 | 1012.3 |
| 20260502053113 | 3 | 156 | 0.0 | 0.0 | 0.00 | 0.00 | 0.00 | 96 | 1012.5 |
| 20260502052612 | 3 | 157 | 0.0 | 0.0 | 0.00 | 0.00 | 0.00 | 95 | 1012.6 |
| 20260502052110 | 3 | 158 | 0.0 | 0.0 | 0.00 | 0.00 | 0.00 | 96 | 1012.4 |
| 20260502051608 | 3 | 166 | 1.6 | 1.6 | 0.00 | 0.00 | 0.00 | 95 | 1012.5 |
| 20260502051105 | 3 | 157 | 0.0 | 0.0 | 0.00 | 0.00 | 0.00 | 95 | 1012.4 |
| 20260502050601 | 3 | 151 | 0.0 | 0.0 | 0.00 | 0.00 | 0.00 | 95 | 1012.3 |
| 20260502050058 | 3 | 150 | 0.0 | 0.0 | 0.00 | 0.00 | 0.00 | 95 | 1012.3 |
| 20260502045554 | 3 | 150 | 0.0 | 0.0 | 0.00 | 0.00 | 0.00 | 95 | 1012.3 |
| 20260502045052 | 3 | 149 | 0.0 | 0.0 | 0.00 | 0.00 | 0.00 | 95 | 1012.3 |
| 20260502044548 | 3 | 150 | 0.0 | 0.0 | 0.00 | 0.00 | 0.00 | 95 | 1012.4 |
| 20260502044045 | 3 | 147 | 0.0 | 0.0 | 0.00 | 0.00 | 0.00 | 95 | 1012.3 |
| 20260502043543 | 3 | 148 | 0.0 | 0.0 | 0.00 | 0.00 | 0.00 | 95 | 1012.4 |
| 20260502043039 | 3 | 148 | 0.0 | 0.0 | 0.00 | 0.00 | 0.00 | 95 | 1012.6 |
| 20260502042533 | 3 | 147 | 0.0 | 0.0 | 0.00 | 0.00 | 0.00 | 95 | 1012.5 |
| 20260502042031 | 3 | 147 | 0.0 | 0.0 | 0.00 | 0.00 | 0.00 | 95 | 1012.4 |
| 20260502041529 | 3 | 147 | 0.0 | 0.0 | 0.00 | 0.00 | 0.00 | 95 | 1012.7 |
| 20260502041026 | 3 | 147 | 0.0 | 0.0 | 0.00 | 0.00 | 0.00 | 95 | 1012.3 |
| 20260502040522 | 3 | 147 | 0.0 | 0.0 | 0.00 | 0.00 | 0.00 | 95 | 1012.4 |
| 20260502040020 | 3 | 148 | 0.0 | 0.0 | 0.00 | 0.51 | 0.51 | 95 | 1012.5 |
| 20260502035515 | 3 | 143 | 0.0 | 0.0 | 0.13 | 0.51 | 0.51 | 95 | 1012.2 |
| 20260502035013 | 3 | 142 | 0.0 | 0.0 | 0.13 | 0.51 | 0.51 | 95 | 1012.4 |
| 20260502034511 | 3 | 142 | 0.0 | 0.0 | 0.00 | 0.48 | 0.48 | 95 | 1012.4 |
| 20260502034009 | 3 | 142 | 0.0 | 0.0 | 0.00 | 0.48 | 0.48 | 95 | 1012.3 |
| 20260502033507 | 3 | 142 | 0.0 | 0.0 | 0.00 | 0.48 | 0.48 | 95 | 1012.5 |
| 20260502033004 | 3 | 142 | 0.0 | 0.0 | 0.00 | 0.48 | 0.48 | 95 | 1012.4 |
| 20260502032500 | 3 | 142 | 0.0 | 0.0 | 0.00 | 0.48 | 0.48 | 95 | 1012.4 |
| 20260502031956 | 3 | 142 | 0.0 | 0.0 | 0.00 | 0.48 | 0.48 | 95 | 1012.4 |
| 20260502031455 | 2 | 141 | 0.0 | 0.0 | 0.18 | 0.48 | 0.48 | 95 | 1012.2 |
| 20260502030953 | 2 | 118 | 1.6 | 1.6 | 0.18 | 0.48 | 0.48 | 95 | 1012.4 |
| 20260502030451 | 3 | 111 | 1.6 | 1.6 | 0.00 | 0.46 | 0.46 | 95 | 1012.4 |
| 20260502025948 | 3 | 139 | 0.0 | 0.0 | 0.00 | 0.46 | 0.46 | 95 | 1012.2 |
| 20260502025445 | 3 | 132 | 0.0 | 1.6 | 0.00 | 0.46 | 0.46 | 95 | 1012.2 |
| 20260502024943 | 3 | 135 | 0.0 | 0.0 | 0.00 | 0.46 | 0.46 | 95 | 1012.1 |
| 20260502024441 | 3 | 103 | 1.6 | 3.2 | 0.00 | 0.46 | 0.46 | 94 | 1012.3 |
| 20260502023939 | 3 | 111 | 1.6 | 1.6 | 0.13 | 0.46 | 0.46 | 94 | 1012.1 |
| 20260502023436 | 3 | 136 | 0.0 | 0.0 | 0.13 | 0.46 | 0.46 | 94 | 1012.2 |
| 20260502022933 | 3 | 133 | 0.0 | 0.0 | 0.00 | 0.43 | 0.43 | 94 | 1012.3 |
| 20260502022430 | 3 | 138 | 0.0 | 0.0 | 0.18 | 0.43 | 0.43 | 94 | 1012.2 |
| 20260502021927 | 3 | 132 | 0.0 | 0.0 | 0.18 | 0.43 | 0.43 | 94 | 1012.4 |
| 20260502021424 | 3 | 139 | 0.0 | 0.0 | 0.13 | 0.41 | 0.41 | 94 | 1012.2 |
| 20260502020921 | 3 | 140 | 0.0 | 0.0 | 0.13 | 0.41 | 0.41 | 94 | 1012.2 |
| 20260502020419 | 3 | 126 | 0.0 | 0.0 | 0.18 | 0.38 | 0.38 | 94 | 1012.1 |
| 20260502015915 | 3 | 115 | 1.6 | 3.2 | 0.18 | 0.38 | 0.38 | 94 | 1012.3 |
| 20260502015413 | 3 | 120 | 1.6 | 3.2 | 0.13 | 0.36 | 0.36 | 94 | 1012.1 |
| 20260502014910 | 3 | 154 | 0.0 | 0.0 | 0.13 | 0.36 | 0.36 | 94 | 1012.0 |
| 20260502014407 | 3 | 150 | 0.0 | 0.0 | 0.18 | 0.33 | 0.33 | 94 | 1012.1 |
| 20260502013903 | 3 | 132 | 0.0 | 0.0 | 0.18 | 0.33 | 0.33 | 93 | 1012.2 |
| 20260502013358 | 3 | 140 | 0.0 | 0.0 | 0.18 | 0.30 | 0.30 | 93 | 1012.1 |
| 20260502012855 | 3 | 135 | 0.0 | 0.0 | 0.18 | 0.30 | 0.30 | 93 | 1012.2 |
| 20260502012354 | 3 | 126 | 0.0 | 0.0 | 0.00 | 0.28 | 0.28 | 93 | 1012.2 |
| 20260502011850 | 3 | 137 | 0.0 | 0.0 | 0.13 | 0.28 | 0.28 | 93 | 1012.1 |
| 20260502011346 | 3 | 140 | 0.0 | 0.0 | 0.13 | 0.28 | 0.28 | 93 | 1011.9 |
| 20260502010843 | 3 | 132 | 1.6 | 1.6 | 0.00 | 0.25 | 0.25 | 93 | 1011.8 |
| 20260502010340 | 3 | 131 | 0.0 | 0.0 | 0.00 | 0.25 | 0.25 | 93 | 1012.0 |
| 20260502005837 | 3 | 135 | 0.0 | 0.0 | 0.18 | 0.25 | 0.25 | 93 | 1012.1 |
| 20260502005335 | 3 | 145 | 0.0 | 0.0 | 0.18 | 0.25 | 0.25 | 93 | 1012.0 |
| 20260502004832 | 3 | 133 | 0.0 | 1.6 | 0.00 | 0.23 | 0.23 | 93 | 1011.7 |
| 20260502004328 | 3 | 124 | 1.6 | 1.6 | 0.00 | 0.23 | 0.23 | 93 | 1011.7 |
| 20260502003826 | 3 | 124 | 1.6 | 1.6 | 0.13 | 0.23 | 0.23 | 93 | 1011.8 |
| 20260502003323 | 3 | 146 | 0.0 | 0.0 | 0.13 | 0.23 | 0.23 | 92 | 1011.7 |
| 20260502002819 | 3 | 141 | 0.0 | 0.0 | 0.00 | 0.20 | 0.20 | 92 | 1011.8 |
| 20260502002316 | 3 | 137 | 0.0 | 0.0 | 0.18 | 0.20 | 0.20 | 92 | 1011.6 |
| 20260502001813 | 3 | 144 | 0.0 | 0.0 | 0.18 | 0.20 | 0.20 | 92 | 1011.4 |
| 20260502001311 | 3 | 147 | 0.0 | 0.0 | 0.00 | 0.18 | 0.18 | 92 | 1011.7 |
| 20260502000809 | 3 | 204 | 1.6 | 1.6 | 0.13 | 0.18 | 0.18 | 92 | 1011.6 |
| 20260502000307 | 3 | 148 | 0.0 | 0.0 | 0.00 | 0.15 | 0.15 | 92 | 1011.4 |
| 20260501235802 | 3 | 157 | 0.0 | 0.0 | 0.18 | 0.15 | 0.15 | 92 | 1011.5 |
| 20260501235258 | 3 | 154 | 0.0 | 0.0 | 0.18 | 0.15 | 0.15 | 92 | 1011.5 |
| 20260501234754 | 4 | 148 | 0.0 | 0.0 | 0.00 | 0.13 | 0.13 | 92 | 1011.4 |
| 20260501234251 | 4 | 146 | 0.0 | 0.0 | 0.00 | 0.13 | 0.13 | 92 | 1011.2 |
| 20260501233750 | 4 | 151 | 0.0 | 0.0 | 0.13 | 0.13 | 0.13 | 91 | 1011.2 |
| 20260501233247 | 4 | 146 | 0.0 | 0.0 | 0.13 | 0.13 | 0.13 | 91 | 1011.3 |
| 20260501232742 | 4 | 160 | 0.0 | 1.6 | 0.18 | 0.10 | 0.10 | 91 | 1011.3 |
| 20260501232239 | 5 | 149 | 0.0 | 0.0 | 0.30 | 0.10 | 0.10 | 91 | 1011.4 |
| 20260501231737 | 5 | 145 | 0.0 | 0.0 | 0.13 | 0.08 | 0.08 | 90 | 1011.3 |
| 20260501231235 | 4 | 158 | 0.0 | 0.0 | 0.18 | 0.05 | 0.05 | 90 | 1011.3 |
| 20260501230733 | 5 | 163 | 0.0 | 0.0 | 0.18 | 0.05 | 0.05 | 90 | 1011.3 |
| 20260501230231 | 5 | 150 | 0.0 | 0.0 | 0.00 | 0.03 | 0.03 | 89 | 1011.2 |
| 20260501225729 | 5 | 151 | 0.0 | 0.0 | 0.13 | 0.03 | 0.03 | 89 | 1011.2 |
| 20260501225226 | 5 | 156 | 0.0 | 0.0 | 0.13 | 0.03 | 0.03 | 89 | 1011.1 |
| 20260501224721 | 5 | 161 | 0.0 | 0.0 | 0.00 | 0.00 | 0.00 | 88 | 1011.1 |
| 20260501224220 | 5 | 162 | 1.6 | 1.6 | 0.00 | 0.00 | 0.00 | 88 | 1011.1 |
| 20260501223715 | 5 | 174 | 1.6 | 1.6 | 0.00 | 0.00 | 0.00 | 87 | 1011.3 |
| 20260501223212 | 5 | 176 | 1.6 | 1.6 | 0.00 | 0.00 | 0.00 | 86 | 1011.2 |
| 20260501222708 | 6 | 151 | 0.0 | 0.0 | 0.00 | 0.00 | 0.00 | 84 | 1011.1 |
| 20260501222205 | 6 | 122 | 0.0 | 0.0 | 0.00 | 0.00 | 0.00 | 85 | 1011.2 |
| 20260501221702 | 7 | 169 | 1.6 | 1.6 | 0.00 | 0.00 | 0.00 | 84 | 1011.2 |
| 20260501221159 | 7 | 173 | 1.6 | 1.6 | 0.00 | 0.00 | 0.00 | 83 | 1011.1 |
| 20260501220657 | 7 | 178 | 1.6 | 3.2 | 0.00 | 0.00 | 0.00 | 81 | 1011.1 |
| 20260501220154 | 7 | 183 | 1.6 | 1.6 | 0.00 | 0.00 | 0.00 | 79 | 1011.0 |
| 20260501215651 | 7 | 179 | 0.0 | 0.0 | 0.00 | 0.00 | 0.00 | 78 | 1010.9 |
| 20260501215146 | 7 | 181 | 1.6 | 1.6 | 0.00 | 0.00 | 0.00 | 78 | 1010.9 |
| 20260501214641 | 7 | 175 | 0.0 | 0.0 | 0.00 | 0.00 | 0.00 | 77 | 1011.1 |
| 20260501214137 | 7 | 175 | 0.0 | 1.6 | 0.00 | 0.00 | 0.00 | 76 | 1010.9 |
| 20260501213634 | 7 | 181 | 1.6 | 1.6 | 0.00 | 0.00 | 0.00 | 76 | 1010.8 |
| 20260501213130 | 7 | 175 | 0.0 | 0.0 | 0.00 | 0.00 | 0.00 | 76 | 1010.9 |
| 20260501212627 | 7 | 182 | 1.6 | 1.6 | 0.00 | 0.00 | 0.00 | 74 | 1010.9 |
| 20260501212123 | 7 | 192 | 1.6 | 3.2 | 0.00 | 0.00 | 0.00 | 75 | 1011.0 |
| 20260501211620 | 7 | 178 | 1.6 | 1.6 | 0.00 | 0.00 | 0.00 | 75 | 1011.0 |
| 20260501211118 | 7 | 189 | 3.2 | 3.2 | 0.00 | 0.00 | 0.00 | 75 | 1011.2 |
| 20260501210614 | 7 | 183 | 1.6 | 1.6 | 0.00 | 0.00 | 0.00 | 76 | 1010.9 |
| 20260501210111 | 8 | 190 | 3.2 | 3.2 | 0.00 | 0.00 | 0.00 | 74 | 1011.1 |
| 20260501205607 | 8 | 188 | 3.2 | 3.2 | 0.00 | 0.00 | 0.00 | 74 | 1010.9 |
| 20260501205105 | 8 | 189 | 3.2 | 3.2 | 0.00 | 0.00 | 0.00 | 73 | 1011.0 |
| 20260501204602 | 8 | 209 | 3.2 | 3.2 | 0.00 | 0.00 | 0.00 | 72 | 1011.0 |
| 20260501204057 | 8 | 189 | 3.2 | 3.2 | 0.00 | 0.00 | 0.00 | 71 | 1011.0 |
| 20260501203554 | 8 | 208 | 3.2 | 3.2 | 0.00 | 0.00 | 0.00 | 70 | 1010.9 |
| 20260501203052 | 8 | 154 | 4.8 | 4.8 | 0.00 | 0.00 | 0.00 | 69 | 1010.7 |
| 20260501202549 | 8 | 190 | 1.6 | 3.2 | 0.00 | 0.00 | 0.00 | 69 | 1010.9 |
| 20260501202045 | 8 | 188 | 0.0 | 0.0 | 0.00 | 0.00 | 0.00 | 68 | 1011.0 |
| 20260501201542 | 8 | 189 | 1.6 | 3.2 | 0.00 | 0.00 | 0.00 | 68 | 1011.0 |
| 20260501201039 | 8 | 189 | 1.6 | 3.2 | 0.00 | 0.00 | 0.00 | 68 | 1011.0 |
| 20260501200536 | 8 | 208 | 3.2 | 3.2 | 0.00 | 0.00 | 0.00 | 66 | 1010.9 |
| 20260501200033 | 8 | 189 | 1.6 | 1.6 | 0.00 | 0.00 | 0.00 | 64 | 1011.1 |
| 20260501195530 | 9 | 191 | 3.2 | 3.2 | 0.00 | 0.00 | 0.00 | 64 | 1011.0 |
| 20260501195026 | 9 | 218 | 4.8 | 4.8 | 0.00 | 0.00 | 0.00 | 62 | 1011.0 |
| 20260501194521 | 8 | 189 | 1.6 | 1.6 | 0.00 | 0.00 | 0.00 | 60 | 1010.9 |
| 20260501194017 | 9 | 189 | 1.6 | 1.6 | 0.00 | 0.00 | 0.00 | 60 | 1011.1 |
| 20260501193515 | 10 | 210 | 4.8 | 4.8 | 0.00 | 0.00 | 0.00 | 58 | 1011.4 |
| 20260501193014 | 9 | 202 | 3.2 | 3.2 | 0.00 | 0.00 | 0.00 | 58 | 1011.0 |
| 20260501192510 | 9 | 187 | 3.2 | 3.2 | 0.00 | 0.00 | 0.00 | 58 | 1011.2 |
| 20260501192008 | 9 | 189 | 3.2 | 3.2 | 0.00 | 0.00 | 0.00 | 57 | 1011.0 |
| 20260501191505 | 10 | 183 | 1.6 | 1.6 | 0.00 | 0.00 | 0.00 | 59 | 1011.3 |
| 20260501191002 | 9 | 171 | 0.0 | 1.6 | 0.00 | 0.00 | 0.00 | 55 | 1011.2 |
| 20260501190457 | 10 | 174 | 0.0 | 0.0 | 0.00 | 0.00 | 0.00 | 55 | 1011.3 |
| 20260501185953 | 10 | 185 | 1.6 | 1.6 | 0.00 | 0.00 | 0.00 | 55 | 1011.3 |
| 20260501185449 | 10 | 185 | 0.0 | 0.0 | 0.00 | 0.00 | 0.00 | 54 | 1011.2 |
| 20260501184945 | 10 | 182 | 0.0 | 1.6 | 0.00 | 0.00 | 0.00 | 53 | 1011.1 |
| 20260501184442 | 9 | 183 | 1.6 | 1.6 | 0.00 | 0.00 | 0.00 | 51 | 1011.5 |
| 20260501183936 | 9 | 237 | 4.8 | 4.8 | 0.00 | 0.00 | 0.00 | 55 | 1011.3 |
| 20260501183434 | 10 | 201 | 4.8 | 8.0 | 0.00 | 0.00 | 0.00 | 53 | 1011.3 |
| 20260501182930 | 10 | 183 | 3.2 | 4.8 | 0.00 | 0.00 | 0.00 | 53 | 1011.3 |
| 20260501182427 | 10 | 176 | 0.0 | 1.6 | 0.00 | 0.00 | 0.00 | 54 | 1011.3 |
| 20260501181924 | 9 | 205 | 3.2 | 3.2 | 0.00 | 0.00 | 0.00 | 54 | 1011.4 |
| 20260501181421 | 9 | 170 | 4.8 | 4.8 | 0.00 | 0.00 | 0.00 | 54 | 1011.4 |
| 20260501180918 | 10 | 212 | 4.8 | 4.8 | 0.00 | 0.00 | 0.00 | 57 | 1011.4 |
| 20260501180415 | 10 | 247 | 8.0 | 9.7 | 0.00 | 0.00 | 0.00 | 52 | 1011.3 |
| 20260501175911 | 10 | 198 | 3.2 | 3.2 | 0.00 | 0.00 | 0.00 | 51 | 1011.2 |
| 20260501175409 | 10 | 162 | 1.6 | 1.6 | 0.00 | 0.00 | 0.00 | 54 | 1011.3 |
| 20260501174905 | 10 | 154 | 3.2 | 3.2 | 0.00 | 0.00 | 0.00 | 55 | 1011.1 |
| 20260501174403 | 9 | 187 | 0.0 | 1.6 | 0.00 | 0.00 | 0.00 | 53 | 1011.1 |
| 20260501173900 | 10 | 196 | 1.6 | 3.2 | 0.00 | 0.00 | 0.00 | 54 | 1011.4 |
| 20260501173357 | 10 | 184 | 3.2 | 3.2 | 0.00 | 0.00 | 0.00 | 56 | 1011.2 |
| 20260501172853 | 10 | 225 | 4.8 | 4.8 | 0.00 | 0.00 | 0.00 | 55 | 1011.4 |
| 20260501172348 | 10 | 166 | 1.6 | 1.6 | 0.00 | 0.00 | 0.00 | 56 | 1011.5 |
| 20260501171844 | 10 | 173 | 0.0 | 0.0 | 0.00 | 0.00 | 0.00 | 55 | 1011.5 |
| 20260501171341 | 9 | 175 | 0.0 | 0.0 | 0.00 | 0.00 | 0.00 | 53 | 1011.6 |
| 20260501170838 | 9 | 212 | 3.2 | 3.2 | 0.00 | 0.00 | 0.00 | 53 | 1011.8 |
| 20260501170335 | 10 | 207 | 3.2 | 3.2 | 0.00 | 0.00 | 0.00 | 53 | 1011.8 |
| 20260501165832 | 10 | 209 | 3.2 | 3.2 | 0.00 | 0.00 | 0.00 | 53 | 1011.6 |
| 20260501165330 | 10 | 172 | 1.6 | 1.6 | 0.00 | 0.00 | 0.00 | 53 | 1011.8 |
| 20260501164827 | 10 | 253 | 4.8 | 4.8 | 0.00 | 0.00 | 0.00 | 51 | 1011.7 |
| 20260501164325 | 10 | 177 | 1.6 | 1.6 | 0.00 | 0.00 | 0.00 | 50 | 1011.8 |
| 20260501163820 | 10 | 181 | 1.6 | 3.2 | 0.00 | 0.00 | 0.00 | 48 | 1011.7 |
| 20260501163318 | 10 | 179 | 1.6 | 1.6 | 0.00 | 0.00 | 0.00 | 53 | 1012.0 |
| 20260501162815 | 10 | 186 | 3.2 | 3.2 | 0.00 | 0.00 | 0.00 | 59 | 1012.2 |
| 20260501162311 | 9 | 149 | 0.0 | 1.6 | 0.00 | 0.00 | 0.00 | 56 | 1012.2 |
| 20260501161808 | 10 | 180 | 1.6 | 1.6 | 0.00 | 0.00 | 0.00 | 56 | 1012.2 |
| 20260501161305 | 8 | 167 | 0.0 | 1.6 | 0.00 | 0.00 | 0.00 | 57 | 1011.9 |
| 20260501160801 | 8 | 178 | 1.6 | 3.2 | 0.00 | 0.00 | 0.00 | 56 | 1012.1 |
| 20260501160258 | 8 | 188 | 4.8 | 4.8 | 0.00 | 0.00 | 0.00 | 59 | 1012.4 |
| 20260501155756 | 8 | 178 | 0.0 | 1.6 | 0.00 | 0.00 | 0.00 | 57 | 1012.5 |
| 20260501155252 | 8 | 101 | 0.0 | 0.0 | 0.00 | 0.00 | 0.00 | 58 | 1012.2 |
| 20260501154749 | 8 | 168 | 3.2 | 3.2 | 0.00 | 0.00 | 0.00 | 59 | 1012.4 |
| 20260501154246 | 8 | 176 | 0.0 | 0.0 | 0.00 | 0.00 | 0.00 | 59 | 1012.1 |
| 20260501153744 | 8 | 156 | 0.0 | 0.0 | 0.00 | 0.00 | 0.00 | 60 | 1012.3 |
| 20260501153241 | 8 | 184 | 1.6 | 1.6 | 0.00 | 0.00 | 0.00 | 59 | 1012.3 |
| 20260501152737 | 8 | 184 | 1.6 | 3.2 | 0.00 | 0.00 | 0.00 | 60 | 1012.5 |
| 20260501152234 | 8 | 159 | 0.0 | 1.6 | 0.00 | 0.00 | 0.00 | 62 | 1012.3 |
| 20260501151731 | 8 | 158 | 0.0 | 0.0 | 0.00 | 0.00 | 0.00 | 61 | 1012.5 |
| 20260501151228 | 8 | 176 | 0.0 | 1.6 | 0.00 | 0.00 | 0.00 | 60 | 1012.4 |
| 20260501150724 | 8 | 167 | 0.0 | 0.0 | 0.00 | 0.00 | 0.00 | 60 | 1012.7 |
| 20260501150220 | 7 | 196 | 3.2 | 3.2 | 0.00 | 0.00 | 0.00 | 63 | 1012.5 |
| 20260501145717 | 8 | 198 | 3.2 | 3.2 | 0.00 | 0.00 | 0.00 | 61 | 1012.6 |
| 20260501145215 | 7 | 99 | 4.8 | 4.8 | 0.00 | 0.00 | 0.00 | 61 | 1012.7 |
| 20260501144710 | 7 | 187 | 6.4 | 8.0 | 0.00 | 0.00 | 0.00 | 63 | 1012.7 |
| 20260501144206 | 7 | 171 | 0.0 | 0.0 | 0.00 | 0.00 | 0.00 | 64 | 1012.8 |
| 20260501143702 | 7 | 180 | 1.6 | 1.6 | 0.00 | 0.00 | 0.00 | 63 | 1012.7 |
| 20260501143200 | 7 | 206 | 4.8 | 4.8 | 0.00 | 0.00 | 0.00 | 63 | 1012.6 |